Volver al catálogo

RESURS O1 DEB

ActivoPO
NORAD 23345·DEBRIS·🇷🇺 Russia

Lanzado Nov 4, 1994 desde Baikonur Cosmodrome

Loading…

Próximos Pases (próximas 24 horas)

TLE

ActualizadoSource: Space-Track

Época: Sep 14, 2026, 08:48 UTC

1 23345U 94074D   26257.36697265  .00000509  00000-0  16330-3 0  9997
2 23345  97.8404  46.9938 0187023 267.1247 120.6963 14.33957452660530

Sigue RESURS O1 DEB en tiempo real con AllMySat

Download on the App Store